TimeCEST,TemperatureF,Dew PointF,Humidity,Sea Level PressureIn,VisibilityMPH,Wind Direction,Wind SpeedMPH,Gust SpeedMPH,PrecipitationIn,Events,Conditions,WindDirDegrees,DateUTC
12:00 AM,46.4,42.8,87,29.74,6.2,SSW,12.7,-,N/A,,Partly Cloudy,210,2013-10-15 22:00:00
12:30 AM,46.4,42.8,87,29.74,6.2,SW,10.4,-,N/A,,Scattered Clouds,220,2013-10-15 22:30:00
1:00 AM,46.4,42.8,87,29.74,6.2,SW,9.2,-,N/A,,Mostly Cloudy,220,2013-10-15 23:00:00
1:07 AM,46.4,42.8,87,29.74,6.2,SW,9.2,-,N/A,,Mostly Cloudy,220,2013-10-15 23:07:00
1:30 AM,46.4,42.8,87,29.74,6.2,SW,8.1,-,N/A,,Scattered Clouds,220,2013-10-15 23:30:00
2:00 AM,46,44,88,29.77,19,WSW,8.9,,,,Mostly Cloudy,240,2013-10-16 00:00:00
2:00 AM,46.4,42.8,87,29.74,6.2,SSW,8.1,-,N/A,,Partly Cloudy,210,2013-10-16 00:00:00
2:30 AM,46.4,42.8,87,29.74,6.2,SW,10.4,-,N/A,,Partly Cloudy,230,2013-10-16 00:30:00
3:00 AM,46.4,42.8,87,29.74,6.2,WSW,10.4,-,N/A,,Mostly Cloudy,240,2013-10-16 01:00:00
3:30 AM,44.6,42.8,93,29.74,6.2,WSW,10.4,-,N/A,,Scattered Clouds,250,2013-10-16 01:30:00
4:00 AM,44.6,41.0,87,29.74,6.2,WSW,8.1,-,N/A,,Scattered Clouds,240,2013-10-16 02:00:00
4:30 AM,44.6,41.0,87,29.74,6.2,WSW,8.1,-,N/A,,Scattered Clouds,240,2013-10-16 02:30:00
5:00 AM,44.6,41.0,87,29.74,6.2,WSW,8.1,-,N/A,,Overcast,250,2013-10-16 03:00:00
5:30 AM,44.6,41.0,87,29.74,6.2,West,8.1,-,N/A,,Mostly Cloudy,270,2013-10-16 03:30:00
6:00 AM,44.6,41.0,87,29.77,6.2,West,5.8,-,N/A,,Mostly Cloudy,260,2013-10-16 04:00:00
6:30 AM,42.8,41.0,93,29.77,6.2,West,5.8,-,N/A,,Overcast,260,2013-10-16 04:30:00
7:00 AM,44.6,41.0,87,29.77,6.2,West,6.9,-,N/A,,Overcast,260,2013-10-16 05:00:00
7:30 AM,44.6,41.0,87,29.80,6.2,WSW,6.9,-,N/A,,Mostly Cloudy,240,2013-10-16 05:30:00
8:00 AM,44,42,88,29.83,19,West,6.7,,,,Overcast,270,2013-10-16 06:00:00
8:00 AM,44.6,41.0,87,29.80,6.2,West,4.6,-,N/A,,Mostly Cloudy,260,2013-10-16 06:00:00
8:30 AM,44.6,41.0,87,29.80,6.2,West,8.1,-,N/A,,Mostly Cloudy,260,2013-10-16 06:30:00
9:00 AM,44.6,41.0,87,29.83,6.2,West,8.1,-,N/A,,Mostly Cloudy,270,2013-10-16 07:00:00
9:24 AM,46.4,42.8,87,29.83,6.2,WNW,8.1,-,N/A,Rain,Light Rain Showers,290,2013-10-16 07:24:00
9:30 AM,46.4,41.0,81,29.83,6.2,WNW,9.2,-,N/A,Rain,Light Rain Showers,290,2013-10-16 07:30:00
10:00 AM,46.4,41.0,81,29.83,6.2,WNW,9.2,-,N/A,,Mostly Cloudy,290,2013-10-16 08:00:00
10:30 AM,46.4,41.0,81,29.86,6.2,WNW,10.4,-,N/A,,Mostly Cloudy,290,2013-10-16 08:30:00
11:00 AM,46.4,41.0,81,29.86,6.2,NW,8.1,-,N/A,,Mostly Cloudy,310,2013-10-16 09:00:00
11:30 AM,46.4,42.8,87,29.89,6.2,West,8.1,-,N/A,,Mostly Cloudy,280,2013-10-16 09:30:00
12:00 PM,50.0,42.8,76,29.89,6.2,West,10.4,-,N/A,,Scattered Clouds,280,2013-10-16 10:00:00
12:30 PM,50.0,42.8,76,29.89,6.2,WNW,11.5,-,N/A,,Mostly Cloudy,290,2013-10-16 10:30:00
1:00 PM,50.0,41.0,71,29.89,6.2,WNW,13.8,-,N/A,,Mostly Cloudy,300,2013-10-16 11:00:00
1:30 PM,50.0,42.8,76,29.89,6.2,WNW,11.5,-,N/A,,Mostly Cloudy,300,2013-10-16 11:30:00
2:00 PM,49,42,71,29.93,19,NW,13.4,,,,Partly Cloudy,310,2013-10-16 12:00:00
2:00 PM,50.0,42.8,76,29.89,6.2,NW,13.8,-,N/A,,Mostly Cloudy,310,2013-10-16 12:00:00
2:30 PM,50.0,42.8,76,29.92,6.2,NW,13.8,-,N/A,,Mostly Cloudy,310,2013-10-16 12:30:00
3:00 PM,50.0,42.8,76,29.92,6.2,WNW,12.7,-,N/A,,Scattered Clouds,300,2013-10-16 13:00:00
3:30 PM,50.0,42.8,76,29.92,6.2,NW,9.2,-,N/A,,Partly Cloudy,310,2013-10-16 13:30:00
3:51 PM,50.0,42.8,76,29.92,6.2,NW,12.7,-,N/A,Rain,Light Rain Showers,310,2013-10-16 13:51:00
4:00 PM,48.2,42.8,82,29.92,6.2,NW,15.0,-,N/A,Rain,Light Rain Showers,320,2013-10-16 14:00:00
4:01 PM,46.4,42.8,87,29.92,6.2,NW,12.7,-,N/A,Rain,Rain Showers,320,2013-10-16 14:01:00
4:04 PM,46.4,42.8,87,29.92,6.2,NW,10.4,-,N/A,Rain,Light Rain Showers,320,2013-10-16 14:04:00
4:30 PM,48.2,44.6,87,29.92,6.2,NW,8.1,-,N/A,,Partly Cloudy,310,2013-10-16 14:30:00
5:00 PM,48.2,42.8,82,29.92,6.2,NW,9.2,-,N/A,,Partly Cloudy,310,2013-10-16 15:00:00
5:30 PM,48.2,42.8,82,29.95,6.2,NW,6.9,-,N/A,,Partly Cloudy,320,2013-10-16 15:30:00
6:00 PM,46.4,41.0,81,29.95,-9999.0,NNW,5.8,-,N/A,,Clear,330,2013-10-16 16:00:00
6:30 PM,44.6,41.0,87,29.95,-9999.0,WNW,5.8,-,N/A,,Clear,300,2013-10-16 16:30:00
7:00 PM,44.6,41.0,87,29.98,-9999.0,West,4.6,-,N/A,,Clear,270,2013-10-16 17:00:00
7:30 PM,42.8,39.2,87,29.98,-9999.0,WNW,4.6,-,N/A,,Clear,300,2013-10-16 17:30:00
8:00 PM,42,40,88,30.02,5,WSW,4.5,,,,Mist,250,2013-10-16 18:00:00
8:00 PM,42.8,39.2,87,29.98,5.0,West,4.6,-,N/A,,Unknown,270,2013-10-16 18:00:00
8:30 PM,41.0,39.2,93,29.98,5.0,WSW,4.6,-,N/A,,Partly Cloudy,250,2013-10-16 18:30:00
9:00 PM,42.8,39.2,87,30.01,4.3,SW,8.1,-,N/A,,Mostly Cloudy,220,2013-10-16 19:00:00
9:30 PM,42.8,41.0,93,29.98,5.0,SW,5.8,-,N/A,,Mostly Cloudy,230,2013-10-16 19:30:00
10:00 PM,42.8,41.0,93,29.98,5.0,SW,5.8,-,N/A,,Mostly Cloudy,220,2013-10-16 20:00:00
10:30 PM,42.8,39.2,87,30.01,5.0,SW,8.1,-,N/A,,Mostly Cloudy,220,2013-10-16 20:30:00
11:00 PM,39.2,37.4,93,30.01,5.0,SSW,5.8,-,N/A,,Unknown,210,2013-10-16 21:00:00
11:30 PM,41.0,37.4,87,30.01,5.0,SW,8.1,-,N/A,,Unknown,220,2013-10-16 21:30:00